Regional Weather Roundup
Issued by NWS Huntsville, AL

Home | Current Version | Previous Version | Text Only | Print | Product List | Glossary On
Versions: 1 2 3 4 5 6 7 8 9 10 11 12 13 14 15 16 17 18 19 20 21 22 23 24 25 26 27 28 29 30 31 32 33 34 35 36 37 38 39 40 41 42 43 44 45 46 47 48 49 50
182
ASUS44 KHUN 080510
RWRHUN

WEATHER ROUNDUP FOR THE TENNESSEE VALLEY
NATIONAL WEATHER SERVICE HUNTSVILLE AL
1100 PM CST WED DEC 07 2016

ALZ001>004-080600-
NORTHWEST ALABAMA

CITY           SKY/WX    TMP DP  RH WIND       PRES   REMARKS
COURTLAND HCN    N/A     41 N/A N/A CALM        N/A
RUSSELLVILLE     N/A     39 N/A N/A MISG        N/A
SHOALS AIRPORT CLOUDY    42  34  73 NW6       30.23R
SHOALS TVA RES   N/A     41 N/A N/A MISG        N/A
$$

ALZ005>007-016-080600-
NORTH CENTRAL ALABAMA

CITY           SKY/WX    TMP DP  RH WIND       PRES   REMARKS
CULLMAN AG STN   N/A     39 N/A N/A CALM        N/A
DECATUR AP     MOCLDY    40  37  89 N5        30.20S
HUNTSVILLE AP  CLOUDY    42  36  79 NW5       30.19R
MERIDIANVILLE  CLOUDY    37  34  87 CALM      30.19S
REDSTONE ARSN  CLOUDY    40  36  83 CALM      30.18R
VINEMONT AP    FAIR      37  35  92 CALM      30.20R
$$

ALZ008>010-080600-
NORTHEAST ALABAMA

CITY           SKY/WX    TMP DP  RH WIND       PRES   REMARKS
ALBERTVILLE    PTCLDY    41  39  93 NW3       30.16R
FORT PAYNE     CLOUDY    41  32  70 CALM      30.15S
SCOTTSBORO AP  CLOUDY    41  36  81 NW3       30.19R
SCOTTSBORO HCN   N/A     41 N/A N/A MISG        N/A
VALLEY HEAD      N/A     41 N/A N/A MISG        N/A
$$

TNZ076-096-097-080600-
SOUTHEASTERN MIDDLE TENNESSEE

CITY           SKY/WX    TMP DP  RH WIND       PRES   REMARKS
TULLAHOMA      CLOUDY    36  34  93 NW5       30.17R WCI  32
WINCHESTER     CLOUDY    37  34  87 CALM      30.17S
$$

...SURROUNDING SITES...

CITY           SKY/WX    TMP DP  RH WIND       PRES   REMARKS
ATLANTA        PTCLDY    45  41  86 NW9       30.11S
ANNISTON       CLOUDY    45  37  73 VRB6      30.17R
BIRMINGHAM     CLOUDY    44  37  76 NW7       30.21S
CHATTANOOGA    CLOUDY    43  36  76 NW3       30.15R
CORINTH        CLOUDY    41  32  70 NW7       30.25R
DALTON         CLOUDY    43  39  87 CALM      30.14F
GADSDEN        CLOUDY    43  37  79 W5        30.18F
GOLDEN TRNGL   PTCLDY    43  36  75 N3        30.19R
HALEYVILLE     CLOUDY    39  36  89 CALM      30.22R
JACKSON TN     CLOUDY    41  29  62 N8        30.28R
MEMPHIS        CLOUDY    41  27  57 N8        30.29R
NASHVILLE      CLOUDY    40  24  53 N10       30.24R WCI  33
OXFORD MS      CLOUDY    39  34  81 N5        30.29R
ROME           CLOUDY    44  37  76 W3        30.14S
SAVANNAH       CLOUDY    41  34  75 N6        30.24R
TUPELO         CLOUDY    43  34  70 NW7       30.24R
TUSCALOOSA     MOCLDY    45  40  82 NW5       30.21S
$$

...GULF COAST WEATHER...

CITY           SKY/WX    TMP DP  RH WIND       PRES   REMARKS
GULFPORT       CLOUDY    60  52  74 NE5       30.17R
PASCAGOULA     CLOUDY    58  52  80 CALM      30.17R
MOBILE         CLOUDY    55  49  80 N9        30.18R
GULF SHORES    CLOUDY    55  54  94 CALM      30.16S
PENSACOLA      PTCLDY    53  50  89 N5        30.15S
DESTIN         CLEAR     57  50  77 NE5       30.15S
PANAMA CITY    CLEAR     54  49  85 N5        30.16R
APPALACHICOLA  CLEAR     55  52  89 NE8       30.15R
$$





USA.gov is the U.S. government's official web portal to all federal, state and local government web resources and services.